Location: Huntsville
(41.2590°N, 111.7678°W)
Time: 07:13:18
(UTC+00:00)

Envisat - Pass Details

Date: 03 December 2021
Orbit: 764 x 766 km, 98.2° (Epoch: 18 January)

Event Time Altitude Azimuth Distance (km) Brightness Sun altitude
Rises 11:12:06 0° 31° (NNE) 3,240 6.6 -37.6°
Reaches altitude 10° 11:15:19 10° 53° (NE) 2,308 6.0 -37.0°
Maximum altitude 11:18:25 16° 91° (E) 1,912 5.7 -36.4°
Drops below altitude 10° 11:21:30 10° 129° (SE) 2,296 6.0 -35.8°
Sets 11:24:41 0° 150° (SSE) 3,216 6.6 -35.2°
